Regional Weather Roundup
Issued by NWS

Home | Current Version | Previous Version | Graphics & Text | Print | Product List | Glossary On
Versions: 1 2 3 4 5 6 7 8 9 10 11 12 13 14 15 16 17 18 19 20 21 22 23 24 25 26 27 28 29 30 31 32 33 34 35 36 37 38 39 40 41 42 43 44 45 46 47 48 49 50
000
ASUS43 KMPX 291110
RWRMN
WEATHER ROUNDUP FOR MINNESOTA
NATIONAL WEATHER SERVICE TWIN CITIES/CHANHASSEN MN
600 AM CDT FRI MAY 29 2015


NOTE: "FAIR" INDICATES FEW OR NO CLOUDS BELOW 12,000 FEET WITH NO
SIGNIFICANT WEATHER AND/OR OBSTRUCTIONS TO VISIBILITY. N/A MEANS
CURRENT SKY AND/OR WEATHER CONDITIONS ARE NOT AVAILABLE.

MNZ060>063-068>070-291200-
   Twin Cities Metro

CITY           SKY/WX    TMP DP  RH WIND       PRES   REMARKS
TWIN CITIES    CLOUDY    65  63  93 S6        29.87S
ST PAUL        LGT RAIN  63  62  97 SE10      29.87S FOG
CRYSTAL        CLOUDY    66  63  90 CALM      29.85S
BLAINE         CLOUDY    64  64 100 SE3       29.87R
LAKEVILLE      MOCLDY    63  61  94 S3        29.87S
EDEN PRAIRIE   CLOUDY    66  62  87 E5        29.85S
SOUTH ST PAUL  CLOUDY    63  62  96 S6        29.87S
LAKE ELMO      RAIN      63  61  94 CALM      29.89R
$$
MNZ001>005-007-008-013>017-022>024-027-028-291200-
   Northwest Minnesota

CITY           SKY/WX    TMP DP  RH WIND       PRES   REMARKS
BEMIDJI        CLOUDY    59  58  96 N10G17    29.87R
HALLOCK        CLOUDY    46  43  87 N20       30.04R
ROSEAU         CLOUDY    48  45  87 N10       29.97R
WARROAD        CLOUDY    46  45  93 NW16G22   29.96R
THIEF RVR FALL CLOUDY    50  46  87 N17G24    29.97R
CROOKSTON      CLOUDY    48  46  93 N24       29.99R
FOSSTON        CLOUDY    54  52  94 N21G26    29.93R FOG
DETROIT LAKES  LGT RAIN  59  57  94 N16G25    29.90R
MOORHEAD       CLOUDY    52  50  93 N30G37    29.93R FOG
PARK RAPIDS    CLOUDY    60  57  89 NW6       29.86R
MAHNOMEN       CLOUDY    56  55  94 N20       29.90R
$$
MNZ006-009>011-018-025>026-291200-
   North Central Minnesota

CITY           SKY/WX    TMP DP  RH WIND       PRES   REMARKS
BAUDETTE       CLOUDY    53  51  93 NW17G28   29.90R
FLAG ISLAND    CLOUDY    50  46  87 N25G32    29.94R
INTL FALLS     HVY RAIN  59  57  93 N13       29.83R FOG
WASKISH        CLOUDY    57  55  94 N12G18    29.88R
BIG FORK       CLOUDY    59  57  94 SW3       29.85R
LONGVILLE      CLOUDY    59  57  94 CALM      29.85S
GRAND RAPIDS   CLOUDY    59  54  82 CALM      29.86S
CRANE LAKE     LGT RAIN  55  54  94 S3        29.85R
ORR            CLOUDY    55  52  88 CALM      29.82S
COOK           LGT RAIN  55  52  88 CALM      29.86R
WALKER         LGT RAIN  57  57  98 SW5       29.86S
$$
MNZ012-019>021-037-291200-
   Northeast Minnesota

CITY           SKY/WX    TMP DP  RH WIND       PRES   REMARKS
DULUTH         MOCLDY    53  48  83 S7        29.85F
HIBBING        CLOUDY    53  50  89 NW5       29.86R
EVELETH        CLOUDY    54  50  87 CALM      29.87R
DULUTH HARBOR  MOCLDY    45  41  87 N7        29.88S
TWO HARBORS    PTCLDY    48  43  81 CALM      29.85S
SILVER BAY     MOCLDY    46  45  93 CALM      29.85S
GRAND MARAIS     N/A     40  39  97 CALM      29.89R
G MARAIS ARPRT MOCLDY    54  48  82 SW3       29.89S
$$
MNZ029>031-032-039>041-046>048-054>057-064-291200-
   West Central Minnesota

CITY           SKY/WX    TMP DP  RH WIND       PRES   REMARKS
FERGUS FALLS   CLOUDY    59  59 100 NW3       29.88R FOG
WHEATON        CLOUDY    57  57 100 NW6       29.89R
MORRIS         MOCLDY    61  59  94 N7        29.85R
ALEXANDRIA     CLOUDY    60  59  96 N6        29.87R
ELBOW LAKE     CLOUDY    59  59 100 NW8       29.87R FOG
WADENA         CLOUDY    57  57 100 NW5       29.86R
GLENWOOD       CLOUDY    61  57  88 N9        29.85R
APPLETON       MOCLDY    61  57  88 NW6       29.85R
BENSON         CLOUDY    61  57  88 N9        29.85R
ORTONVILLE     CLOUDY    61  57  88 N9        29.86R
MADISON        MOCLDY    61  57  88 N7        29.83F
WILLMAR        FAIR      64  63  94 SE7       29.83S
$$
MNZ033>034-036-042>043-049>051-058-059-291200-
   Central Minnesota

CITY           SKY/WX    TMP DP  RH WIND       PRES   REMARKS
ST CLOUD       PTCLDY    61  59  93 CALM      29.83R
SAUK CENTRE    FAIR      59  58  96 N5        29.84S
PAYNESVILLE    MOCLDY    60  59  96 CALM      29.83S
AITKIN         CLOUDY    63  55  77 CALM      29.84R
PINE RIVER     MOCLDY    59  59 100 CALM      29.90R
BRAINERD       MOCLDY    61  58  90 NW8       29.86R
STAPLES        DRIZZLE   57  57 100 N6        29.85F
LONG PRAIRIE   CLOUDY    59  55  88 CALM      29.85S
LITTLE FALLS   MOCLDY    59  55  88 CALM      29.84S
LITCHFIELD     PTCLDY    64  64 100 CALM      29.83F
BUFFALO        PTCLDY    64  60  86 SE6       29.84F
MAPLE LAKE     CLEAR     64  62  93 CALM      29.84F
$$
MNZ037-044-045-052-053-291200-
   East Central Minnesota

CITY           SKY/WX    TMP DP  RH WIND       PRES   REMARKS
PRINCETON      PTCLDY    64  61  88 SE6       29.84S
MORA           MOCLDY    61  55  82 SE3       29.87R
CAMBRIDGE      MOCLDY    66  57  72 SE8       29.83F
RUSH CITY      CLOUDY    61  60  94 S8        29.86S
MOOSE LAKE     MOCLDY    50  46  87 CALM      29.84R
HINCKLEY       CLOUDY    63  61  94 S8        29.85S
CLOQUET        PTCLDY    45  43  93 E3        29.84F FOG
MCGREGOR       CLOUDY    63  57  82 CALM      29.84S
$$
MNZ071>073-080-081-089-090-097-098-291200-
   Southwest Minnesota

CITY           SKY/WX    TMP DP  RH WIND       PRES   REMARKS
MONTEVIDEO     CLOUDY    63  63 100 NW6       29.84R
GRANITE FALLS  LGT RAIN  62  61  96 S7        29.83S
CANBY          MOCLDY    61  60  95 NW5       29.84S FOG
MARSHALL       CLOUDY    63  57  82 SW6       29.83S
REDWOOD FALLS  CLOUDY    64  61  90 S9        29.83S
OLIVIA         MOCLDY    61  57  88 SE6       29.82S
PIPESTONE      CLOUDY    64  59  82 E6        29.86S
WINDOM         RAIN      63  61  94 S7        29.87R
WORTHINGTON    CLOUDY    63  57  82 SE6       29.86F
JACKSON        HVY RAIN  64  63  94 SW5       29.90R
TRACY          CLOUDY    64  63  96 S5        29.85S FOG
SLAYTON        CLOUDY    63  62  99 CALM      29.88R
$$
MNZ065>067-074>077-082>085-091>093-291200-
   South Central Minnesota

CITY           SKY/WX    TMP DP  RH WIND       PRES   REMARKS
MANKATO        CLOUDY    66  63  88 S8        29.87R
NEW ULM        CLOUDY    64  64 100 SW6       29.86R
ST JAMES       CLOUDY    64  61  88 W6G12     29.88R
FAIRMONT       CLOUDY    63  55  77 S8        29.88R
GLENCOE        CLOUDY    67  64  93 SE5       29.85R
FARIBAULT      CLOUDY    64  63  94 SE7       29.88S
OWATONNA       CLOUDY    64  61  88 S8        29.88S
WASECA         CLOUDY    64  61  88 S10       29.89S
ALBERT LEA     CLOUDY    66  63  88 S8        29.89S
$$
MNZ078>079-086>088-094>096-291200-
   Southeast Minnesota

CITY           SKY/WX    TMP DP  RH WIND       PRES   REMARKS
ROCHESTER      CLOUDY    64  62  93 S10       29.92R
RED WING         N/A     64  61  88 SE7       29.88S
STANTON        MOCLDY    65  61  87 S10       29.86S
DODGE CENTER   CLOUDY    64  63  94 S10       29.90S
WINONA         MOCLDY    63  59  88 SE5       29.91F
AUSTIN         CLOUDY    64  63  94 S8        29.91R
PRESTON        MOCLDY    62  60  91 S7        29.93S
$$
ABBREVIATIONS USED IN REMARKS
   TC - TEMPERATURES IN CELSIUS
  WCI - WIND CHILL INDEX
   HX - HEAT INDEX
  VSB - VISIBILITY
$$


USA.gov is the U.S. government's official web portal to all federal, state and local government web resources and services.